Location: Unspecified
(48.2082°N, 0.0000°E)
Time: 07:27:50
(UTC+00:00)

Transit 4A - Pass Details

Date: 26 June 2019
Orbit: 862 x 982 km, 66.8° (Epoch: 21 July)

Event Time Altitude Azimuth Distance (km) Brightness Sun altitude
Rises 15:03:50 0° 325° (NW) 3,695 11.2 46.6°
Reaches altitude 10° 15:06:29 10° 330° (NNW) 2,740 10.6 46.2°
Maximum altitude 15:12:48 57° 49° (NE) 1,131 8.7 45.2°
Drops below altitude 10° 15:18:58 10° 127° (SE) 2,670 10.1 44.2°
Sets 15:21:31 0° 132° (SE) 3,595 10.7 43.8°
